CW0927 Weather Reports


Display with metric or nautical units.
time (UTC)temp
F
wind
direction
speed
MPH
gust
MPH
rain 1hr
in
rain 24hr
in
rain mn
in
humidity
%
barometer
mb
20200408184124 87 283 6.0 12.0 0.00 0.00 0.00 59 1013.4
20200408183623 87 299 6.0 13.0 0.00 0.00 0.00 60 1013.5
20200408183124 87 258 2.0 15.0 0.00 0.00 0.00 61 1013.6
20200408182622 86 266 6.0 14.0 0.00 0.00 0.00 61 1013.8
20200408182122 86 249 7.0 14.0 0.00 0.00 0.00 61 1013.9
20200408181620 86 261 4.0 12.0 0.00 0.00 0.00 62 1013.9
20200408181140 86 298 5.0 12.0 0.00 0.00 0.00 61 1013.9
20200408180632 87 306 5.0 12.0 0.00 0.00 0.00 60 1014.0
20200408180134 87 296 4.0 18.0 0.00 0.00 0.00 60 1014.2
20200408175630 87 254 5.0 18.0 0.00 0.00 0.00 60 1014.2
20200408175125 87 265 4.0 13.0 0.00 0.00 0.00 59 1014.3
20200408174624 87 267 5.0 14.0 0.00 0.00 0.00 60 1014.3
20200408174123 87 288 6.0 14.0 0.00 0.00 0.00 60 1014.4
20200408173623 87 275 6.0 12.0 0.00 0.00 0.00 61 1014.4
20200408173124 86 244 5.0 9.0 0.00 0.00 0.00 62 1014.5
20200408172622 86 328 2.0 11.0 0.00 0.00 0.00 64 1014.6
20200408172122 86 275 6.0 11.0 0.00 0.00 0.00 62 1014.6
20200408171622 86 231 4.0 12.0 0.00 0.00 0.00 62 1014.7
20200408171122 86 266 6.0 15.0 0.00 0.00 0.00 62 1014.9
20200408170621 86 257 7.0 14.0 0.00 0.00 0.00 62 1014.9
20200408170141 86 272 5.0 12.0 0.00 0.00 0.00 61 1015.0
20200408165632 86 326 2.0 13.0 0.00 0.00 0.00 65 1015.0
20200408165128 85 284 4.0 13.0 0.00 0.00 0.00 65 1015.0
20200408164628 85 279 6.0 12.0 0.00 0.00 0.00 65 1015.1
20200408164129 85 256 6.0 11.0 0.00 0.00 0.00 65 1015.1
20200408163630 86 325 3.0 14.0 0.00 0.00 0.00 64 1015.2
20200408163131 86 294 4.0 14.0 0.00 0.00 0.00 66 1015.2
20200408162630 86 267 4.0 10.0 0.00 0.00 0.00 66 1015.3
20200408162130 84 318 4.0 8.0 0.00 0.00 0.00 66 1015.3
20200408161626 84 266 2.0 7.0 0.00 0.00 0.00 67 1015.3
20200408161146 85 319 2.0 8.0 0.00 0.00 0.00 66 1015.3
20200408160646 84 296 2.0 11.0 0.00 0.00 0.00 67 1015.4
20200408160148 83 321 4.0 11.0 0.00 0.00 0.00 66 1015.5
20200408155642 83 281 5.0 11.0 0.00 0.00 0.00 65 1015.5
20200408155130 84 308 4.0 11.0 0.00 0.00 0.00 65 1015.6
20200408154631 84 351 4.0 12.0 0.00 0.00 0.00 65 1015.6
20200408154131 82 350 5.0 15.0 0.00 0.00 0.00 66 1015.8
20200408153630 82 252 5.0 15.0 0.00 0.00 0.00 67 1015.9
20200408153131 82 254 6.0 14.0 0.00 0.00 0.00 67 1015.9
20200408152628 81 260 7.0 14.0 0.00 0.00 0.00 68 1015.9
20200408152128 81 279 4.0 9.0 0.00 0.00 0.00 69 1015.9
20200408151627 81 271 4.0 9.0 0.00 0.00 0.00 70 1015.9
20200408151126 81 258 4.0 8.0 0.00 0.00 0.00 71 1015.9
20200408150626 80 270 4.0 9.0 0.00 0.00 0.00 72 1015.9
20200408150127 80 275 3.0 11.0 0.00 0.00 0.00 72 1016.0
20200408145624 80 277 2.0 8.0 0.00 0.00 0.00 73 1016.0
20200408145121 80 350 3.0 12.0 0.00 0.00 0.00 73 1016.0
20200408144620 80 279 5.0 12.0 0.00 0.00 0.00 73 1016.0
20200408144130 80 241 4.0 12.0 0.00 0.00 0.00 74 1016.0
20200408143628 79 263 2.0 9.0 0.00 0.00 0.00 75 1015.9
20200408143142 79 283 2.0 9.0 0.00 0.00 0.00 75 1015.8
20200408142623 78 329 2.0 10.0 0.00 0.00 0.00 77 1015.9
20200408142122 78 344 4.0 10.0 0.00 0.00 0.00 78 1015.9
20200408141623 78 269 3.0 10.0 0.00 0.00 0.00 79 1015.9
20200408141123 78 240 3.0 10.0 0.00 0.00 0.00 79 1015.8
20200408140632 77 321 4.0 10.0 0.00 0.00 0.00 82 1015.8
20200408140134 76 319 4.0 10.0 0.00 0.00 0.00 83 1015.9
20200408135628 76 281 3.0 8.0 0.00 0.00 0.00 83 1015.8
20200408135128 76 317 2.0 11.0 0.00 0.00 0.00 83 1015.8
20200408134628 75 347 3.0 15.0 0.00 0.00 0.00 85 1015.8
20200408134127 75 338 4.0 15.0 0.00 0.00 0.00 85 1015.8
20200408133627 74 281 4.0 12.0 0.00 0.00 0.00 86 1015.8
20200408133128 74 246 4.0 11.0 0.00 0.00 0.00 86 1015.7
20200408132625 74 257 3.0 13.0 0.00 0.00 0.00 86 1015.7
20200408132123 74 237 6.0 13.0 0.00 0.00 0.00 85 1015.6
20200408131623 74 197 6.0 11.0 0.00 0.00 0.00 85 1015.6
20200408131122 74 250 5.0 11.0 0.00 0.00 0.00 85 1015.5
20200408130622 74 265 3.0 10.0 0.00 0.00 0.00 86 1015.4
20200408130127 74 238 2.0 10.0 0.00 0.00 0.00 86 1015.4
20200408125621 73 307 4.0 13.0 0.00 0.00 0.00 86 1015.4
20200408125136 73 261 4.0 13.0 0.00 0.00 0.00 86 1015.3
20200408124633 73 236 3.0 10.0 0.00 0.00 0.00 87 1015.3
20200408124132 73 249 3.0 9.0 0.00 0.00 0.00 88 1015.3
20200408123631 72 248 2.0 8.0 0.00 0.00 0.00 88 1015.2
20200408123131 72 277 0.0 6.0 0.00 0.00 0.00 89 1015.1
20200408122629 72 274 3.0 6.0 0.00 0.00 0.00 89 1015.0
20200408122127 71 289 1.0 7.0 0.00 0.00 0.00 90 1015.1
20200408121627 70 265 2.0 7.0 0.00 0.00 0.00 92 1015.1
20200408121125 70 265 1.0 4.0 0.00 0.00 0.00 93 1015.1
20200408120625 70 277 0.0 3.0 0.00 0.00 0.00 94 1015.1
20200408120146 69 277 0.0 1.0 0.00 0.00 0.00 94 1015.0
20200408115631 69 276 0.0 2.0 0.00 0.00 0.00 95 1014.9
20200408115131 69 276 0.0 2.0 0.00 0.00 0.00 95 1014.9
20200408114631 68 276 0.0 1.0 0.00 0.00 0.00 95 1014.8
20200408114129 68 277 0.0 1.0 0.00 0.00 0.00 95 1014.8
20200408113628 68 277 0.0 0.0 0.00 0.00 0.00 95 1014.8
20200408113128 68 277 0.0 0.0 0.00 0.00 0.00 95 1014.8
20200408112624 68 276 0.0 0.0 0.00 0.00 0.00 95 1014.8
20200408112124 68 276 0.0 0.0 0.00 0.00 0.00 95 1014.7
20200408111624 68 277 0.0 0.0 0.00 0.00 0.00 95 1014.6
20200408111122 68 277 0.0 0.0 0.00 0.00 0.00 95 1014.5
20200408110622 68 277 0.0 0.0 0.00 0.00 0.00 94 1014.4
20200408110124 69 276 0.0 1.0 0.00 0.00 0.00 94 1014.3
20200408105622 69 277 0.0 2.0 0.00 0.00 0.00 94 1014.2
20200408105138 69 276 0.0 2.0 0.00 0.00 0.00 94 1014.2
20200408104628 69 276 0.0 0.0 0.00 0.00 0.00 94 1014.2
20200408104128 69 276 0.0 1.0 0.00 0.00 0.00 94 1014.1
20200408103626 69 277 0.0 1.0 0.00 0.00 0.00 94 1014.0
20200408103128 69 276 0.0 1.0 0.00 0.00 0.00 94 1014.0
20200408102625 69 277 0.0 1.0 0.00 0.00 0.00 94 1014.0
20200408102125 69 277 0.0 1.0 0.00 0.00 0.00 93 1014.0
20200408101624 70 276 0.0 1.0 0.00 0.00 0.00 94 1013.9
20200408101123 70 277 0.0 3.0 0.00 0.00 0.00 93 1013.9
20200408100622 70 276 0.0 3.0 0.00 0.00 0.00 93 1014.0
20200408100143 70 277 0.0 3.0 0.00 0.00 0.00 93 1013.9
20200408095629 70 276 0.0 2.0 0.00 0.00 0.00 93 1013.9
20200408095128 70 276 0.0 3.0 0.00 0.00 0.00 92 1013.9
20200408094628 70 277 0.0 3.0 0.00 0.00 0.00 92 1013.9
20200408094127 70 276 0.0 3.0 0.00 0.00 0.00 92 1013.9
20200408093627 70 249 0.0 4.0 0.00 0.00 0.00 92 1013.9
20200408093128 70 249 1.0 4.0 0.00 0.00 0.00 92 1013.9
20200408092627 70 250 1.0 4.0 0.00 0.00 0.00 92 1013.9
20200408092125 70 250 1.0 3.0 0.00 0.00 0.00 92 1013.9
20200408091124 70 250 0.0 3.0 0.00 0.00 0.00 93 1013.9
20200408090642 70 250 0.0 3.0 0.00 0.00 0.00 93 1013.9
20200408090143 69 219 1.0 2.0 0.00 0.00 0.00 93 1014.0
20200408085629 69 147 0.0 1.0 0.00 0.00 0.00 93 1013.9
20200408085129 69 148 0.0 1.0 0.00 0.00 0.00 93 1014.0
20200408084628 69 147 0.0 0.0 0.00 0.00 0.00 92 1014.0
20200408084127 69 148 0.0 0.0 0.00 0.00 0.00 92 1014.0
20200408083626 69 148 0.0 0.0 0.00 0.00 0.00 92 1014.1
20200408083127 69 147 0.0 1.0 0.00 0.00 0.00 92 1014.1
20200408082625 69 148 0.0 1.0 0.00 0.00 0.00 92 1014.2
20200408082124 69 148 0.0 0.0 0.00 0.00 0.00 91 1014.2
20200408081624 70 147 0.0 0.0 0.00 0.00 0.00 91 1014.2
20200408081122 70 147 0.0 1.0 0.00 0.00 0.00 91 1014.1
20200408080641 70 147 0.0 1.0 0.00 0.00 0.00 91 1014.2
20200408080134 70 148 0.0 1.0 0.00 0.00 0.00 91 1014.2
20200408075628 70 147 0.0 1.0 0.00 0.00 0.00 91 1014.1
20200408075127 70 147 0.0 1.0 0.00 0.00 0.00 90 1014.1
20200408074625 70 148 0.0 0.0 0.00 0.00 0.00 90 1014.1
20200408074124 71 147 0.0 0.0 0.00 0.00 0.00 89 1014.3
20200408073623 71 147 0.0 1.0 0.00 0.00 0.00 90 1014.4
20200408073125 71 147 0.0 1.0 0.00 0.00 0.00 89 1014.5
20200408072621 71 148 0.0 1.0 0.00 0.00 0.00 89 1014.5
20200408072122 71 148 0.0 0.0 0.00 0.00 0.00 89 1014.6
20200408071646 71 148 0.0 2.0 0.00 0.00 0.00 89 1014.6
20200408071133 71 148 0.0 2.0 0.00 0.00 0.00 89 1014.7
20200408070633 71 147 0.0 2.0 0.00 0.00 0.00 89 1014.7
20200408070134 71 147 0.0 1.0 0.00 0.00 0.00 89 1014.8
20200408065629 71 147 0.0 2.0 0.00 0.00 0.00 90 1015.0
20200408065128 71 155 0.0 2.0 0.00 0.00 0.00 89 1015.1
20200408064627 71 152 0.0 1.0 0.00 0.00 0.00 89 1015.3
20200408064126 71 153 0.0 1.0 0.00 0.00 0.00 89 1015.4
20200408063625 71 153 0.0 1.0 0.00 0.00 0.00 89 1015.4
20200408063126 71 153 0.0 1.0 0.00 0.00 0.00 90 1015.4
20200408062624 71 153 0.0 1.0 0.00 0.00 0.00 89 1015.5
20200408062123 71 153 0.0 1.0 0.00 0.00 0.00 88 1015.6
20200408061642 71 153 0.0 1.0 0.00 0.00 0.00 88 1015.7
20200408061133 71 153 0.0 1.0 0.00 0.00 0.00 88 1015.8
20200408060632 71 153 0.0 1.0 0.00 0.00 0.00 89 1015.9
20200408060133 71 153 0.0 1.0 0.00 0.00 0.00 89 1015.9
20200408055626 71 153 0.0 1.0 0.00 0.00 0.00 89 1015.9
20200408055126 71 153 0.0 2.0 0.00 0.00 0.00 89 1015.9
20200408054625 71 153 0.0 1.0 0.00 0.00 0.00 89 1016.0
20200408054124 71 153 0.0 1.0 0.00 0.00 0.00 89 1016.2
20200408053623 71 153 0.0 0.0 0.00 0.00 0.00 88 1016.2
20200408053145 71 153 0.0 0.0 0.00 0.00 0.00 87 1016.3
20200408052623 72 153 0.0 0.0 0.00 0.00 0.00 87 1016.5
20200408052142 72 153 0.0 0.0 0.00 0.00 0.00 87 1016.6
20200408051633 72 153 0.0 0.0 0.00 0.00 0.00 87 1016.7
20200408051133 72 153 0.0 0.0 0.00 0.00 0.00 86 1016.7
20200408050631 72 153 0.0 0.0 0.00 0.00 0.00 86 1016.7
20200408050128 72 153 0.0 1.0 0.00 0.00 0.00 86 1016.8
20200408045627 73 153 0.0 1.0 0.00 0.00 0.00 86 1016.8
20200408045127 73 153 0.0 1.0 0.00 0.00 0.00 85 1016.9
20200408044626 73 153 0.0 1.0 0.00 0.00 0.00 85 1017.0
20200408044126 73 153 0.0 1.0 0.00 0.00 0.00 85 1017.1
20200408043625 73 152 0.0 1.0 0.00 0.00 0.00 84 1017.2
20200408043126 73 153 0.0 1.0 0.00 0.00 0.00 84 1017.2
20200408042625 73 152 0.0 1.0 0.00 0.00 0.00 84 1017.1
20200408042125 73 153 0.0 1.0 0.00 0.00 0.00 84 1016.9
20200408041624 73 153 0.0 0.0 0.00 0.00 0.00 83 1017.1
20200408041124 74 153 0.0 0.0 0.00 0.00 0.00 83 1017.4
20200408040624 74 153 0.0 1.0 0.00 0.00 0.00 82 1017.4
20200408040124 74 152 0.0 1.0 0.00 0.00 0.00 82 1017.5
20200408035627 74 153 0.0 1.0 0.00 0.00 0.00 81 1017.6
20200408035126 75 153 0.0 1.0 0.00 0.00 0.00 81 1017.6
20200408034625 75 153 0.0 2.0 0.00 0.00 0.00 81 1017.5
20200408034135 75 152 0.0 2.0 0.00 0.00 0.00 81 1017.4
20200408033624 75 153 0.0 1.0 0.00 0.00 0.00 81 1017.5
20200408033125 75 153 0.0 1.0 0.00 0.00 0.00 81 1017.7
20200408032623 75 152 0.0 2.0 0.00 0.00 0.00 81 1017.8
20200408032142 75 153 0.0 2.0 0.00 0.00 0.00 81 1017.8
20200408031633 75 248 0.0 0.0 0.00 0.00 0.00 81 1017.8
20200408031132 74 248 0.0 0.0 0.00 0.00 0.00 81 1017.9
20200408030631 74 248 0.0 0.0 0.00 0.00 0.00 81 1018.0
20200408030129 74 248 0.0 0.0 0.00 0.00 0.00 81 1018.2
20200408025627 75 248 0.0 1.0 0.00 0.00 0.00 80 1018.3
20200408025127 75 248 0.0 3.0 0.00 0.00 0.00 80 1018.2
20200408024626 75 248 1.0 3.0 0.00 0.00 0.00 80 1018.3
20200408024126 75 247 0.0 2.0 0.00 0.00 0.00 79 1018.4
20200408023625 75 247 0.0 2.0 0.00 0.00 0.00 79 1018.3
20200408023127 75 247 0.0 3.0 0.00 0.00 0.00 79 1018.3
20200408022624 75 182 0.0 3.0 0.00 0.00 0.00 78 1018.2
20200408022128 76 182 0.0 3.0 0.00 0.00 0.00 78 1018.2
20200408021622 76 141 0.0 4.0 0.00 0.00 0.00 77 1018.1
20200408021122 76 131 1.0 3.0 0.00 0.00 0.00 77 1017.9
20200408020642 76 59 1.0 3.0 0.00 0.00 0.00 76 1017.7
20200408020130 76 140 2.0 4.0 0.00 0.00 0.00 75 1017.5
20200408015627 76 87 1.0 4.0 0.00 0.00 0.00 75 1017.5
20200408015126 76 133 0.0 6.0 0.00 0.00 0.00 74 1017.5
20200408014625 77 138 1.0 6.0 0.00 0.00 0.00 73 1017.5
20200408014124 77 107 2.0 6.0 0.00 0.00 0.00 72 1017.4
20200408013624 77 108 2.0 7.0 0.00 0.00 0.00 71 1017.4
20200408013144 77 96 2.0 7.0 0.00 0.00 0.00 71 1017.4
20200408012633 77 70 2.0 6.0 0.00 0.00 0.00 72 1017.4
20200408012132 77 130 2.0 6.0 0.00 0.00 0.00 72 1017.4
20200408011631 78 112 1.0 4.0 0.00 0.00 0.00 72 1017.4
20200408011130 78 109 0.0 2.0 0.00 0.00 0.00 72 1017.4
20200408010630 78 107 1.0 3.0 0.00 0.00 0.00 71 1017.3
20200408010128 78 105 1.0 2.0 0.00 0.00 0.00 71 1017.3
20200408005627 78 109 1.0 6.0 0.00 0.00 0.00 71 1017.2
20200408005126 78 109 1.0 6.0 0.00 0.00 0.00 70 1017.1
20200408004625 79 93 0.0 2.0 0.00 0.00 0.00 70 1017.2
20200408004125 79 93 0.0 1.0 0.00 0.00 0.00 69 1017.2
20200408003625 79 93 0.0 1.0 0.00 0.00 0.00 69 1017.2
20200408003126 80 93 0.0 4.0 0.00 0.00 0.00 68 1017.2
20200408002626 80 93 1.0 4.0 0.00 0.00 0.00 67 1017.0
20200408002124 80 109 2.0 4.0 0.00 0.00 0.00 67 1017.0
20200408001625 80 105 2.0 5.0 0.00 0.00 0.00 66 1016.9
20200408000642 80 100 1.0 6.0 0.00 0.00 0.00 66 1016.7
20200408000132 81 92 0.0 6.0 0.00 0.00 0.00 65 1016.7
20200407235630 81 94 2.0 4.0 0.00 0.00 0.00 64 1016.6
20200407235129 81 105 1.0 4.0 0.00 0.00 0.00 64 1016.6
20200407234628 81 88 2.0 7.0 0.00 0.00 0.00 63 1016.5
20200407234127 82 97 3.0 7.0 0.00 0.00 0.00 62 1016.4
20200407233627 82 95 2.0 8.0 0.00 0.00 0.00 61 1016.2
20200407233129 83 99 2.0 8.0 0.00 0.00 0.00 59 1016.2
20200407232627 84 88 2.0 5.0 0.00 0.00 0.00 57 1016.2
20200407232126 85 122 2.0 5.0 0.00 0.00 0.00 53 1016.2
20200407231626 86 75 1.0 3.0 0.00 0.00 0.00 46 1016.2
20200407231126 86 75 1.0 3.0 0.00 0.00 0.00 46 1016.1
20200407230644 86 75 1.0 2.0 0.00 0.00 0.00 46 1016.1
20200407230134 86 74 0.0 1.0 0.00 0.00 0.00 46 1016.1
20200407225631 86 74 0.0 2.0 0.00 0.00 0.00 45 1016.1
20200407225131 87 75 1.0 3.0 0.00 0.00 0.00 45 1016.1
20200407224630 87 74 2.0 3.0 0.00 0.00 0.00 46 1016.0
20200407224128 87 73 1.0 4.0 0.00 0.00 0.00 44 1016.1
20200407223627 87 74 1.0 7.0 0.00 0.00 0.00 44 1016.1
20200407223217 87 74 2.0 7.0 0.00 0.00 0.00 45 1015.9
20200407222625 87 81 2.0 6.0 0.00 0.00 0.00 45 1015.9
20200407222124 87 107 1.0 3.0 0.00 0.00 0.00 44 1015.9
20200407221643 88 108 1.0 3.0 0.00 0.00 0.00 44 1016.0
20200407221131 88 107 2.0 6.0 0.00 0.00 0.00 44 1016.2
20200407220631 87 126 2.0 6.0 0.00 0.00 0.00 44 1016.2
20200407220132 88 78 1.0 3.0 0.00 0.00 0.00 44 1016.1
20200407215630 88 78 1.0 4.0 0.00 0.00 0.00 44 1016.1
20200407215129 87 85 2.0 4.0 0.00 0.00 0.00 45 1016.1
20200407214628 88 78 2.0 4.0 0.00 0.00 0.00 43 1016.1
20200407214128 87 61 1.0 3.0 0.00 0.00 0.00 44 1016.1
20200407213626 87 128 2.0 3.0 0.00 0.00 0.00 45 1016.0
20200407213128 87 169 0.0 3.0 0.00 0.00 0.00 47 1016.0
20200407212625 86 169 0.0 4.0 0.00 0.00 0.00 46 1016.0
20200407212123 86 234 2.0 4.0 0.00 0.00 0.00 47 1016.0
20200407211643 86 178 0.0 2.0 0.00 0.00 0.00 46 1016.0
20200407211131 87 188 1.0 2.0 0.00 0.00 0.00 46 1016.1
20200407210631 86 188 0.0 5.0 0.00 0.00 0.00 46 1016.1
20200407210135 86 187 2.0 5.0 0.00 0.00 0.00 46 1016.0
20200407205630 87 257 1.0 7.0 0.00 0.00 0.00 45 1015.9
20200407205127 88 272 2.0 8.0 0.00 0.00 0.00 45 1015.9
20200407204627 88 347 3.0 7.0 0.00 0.00 0.00 44 1015.9
20200407204125 87 190 1.0 7.0 0.00 0.00 0.00 45 1015.9
20200407203625 88 268 3.0 10.0 0.00 0.00 0.00 45 1016.1
20200407203127 88 269 4.0 10.0 0.00 0.00 0.00 45 1016.2
20200407202625 88 273 1.0 7.0 0.00 0.00 0.00 46 1016.3
20200407202125 87 298 2.0 6.0 0.00 0.00 0.00 46 1016.3
20200407201643 87 227 1.0 7.0 0.00 0.00 0.00 46 1016.4
20200407201227 87 248 4.0 7.0 0.00 0.00 0.00 46 1016.6
20200407200629 87 240 4.0 7.0 0.00 0.00 0.00 45 1016.6
20200407200131 87 225 2.0 8.0 0.00 0.00 0.00 45 1016.7
20200407195627 87 286 2.0 7.0 0.00 0.00 0.00 45 1016.7
20200407195125 87 169 4.0 7.0 0.00 0.00 0.00 45 1016.7
20200407194642 86 207 3.0 4.0 0.00 0.00 0.00 45 1016.8
20200407194134 86 284 2.0 6.0 0.00 0.00 0.00 44 1016.9
20200407193632 86 171 1.0 6.0 0.00 0.00 0.00 47 1017.0
20200407193134 85 54 0.0 6.0 0.00 0.00 0.00 46 1017.1
20200407192632 85 240 1.0 5.0 0.00 0.00 0.00 46 1017.1
20200407192132 87 191 4.0 7.0 0.00 0.00 0.00 44 1017.2
20200407191633 87 159 2.0 7.0 0.00 0.00 0.00 44 1017.3
20200407191129 86 28 3.0 5.0 0.00 0.00 0.00 45 1017.3
20200407190627 86 92 2.0 5.0 0.00 0.00 0.00 46 1017.4
20200407190128 86 199 2.0 5.0 0.00 0.00 0.00 45 1017.6
20200407185626 86 78 2.0 6.0 0.00 0.00 0.00 45 1017.6
20200407185124 85 269 2.0 5.0 0.00 0.00 0.00 47 1017.7
20200407184644 85 105 1.0 7.0 0.00 0.00 0.00 46 1017.7